| time (UTC) | temp F | wind direction | speed MPH | gust MPH | rain 1hr in | rain 24hr in | rain mn in | humidity % | barometer mb |
| 20260502211516 | 82 | 76 | 4.0 | 9.0 | 0.00 | 0.03 | 0.00 | 80 | 1014.3 |
| 20260502211014 | 82 | 64 | 4.0 | 11.0 | 0.00 | 0.03 | 0.00 | 80 | 1014.3 |
| 20260502210514 | 82 | 82 | 5.0 | 11.0 | 0.00 | 0.03 | 0.00 | 79 | 1014.2 |
| 20260502210015 | 83 | 63 | 5.0 | 10.0 | 0.00 | 0.03 | 0.00 | 78 | 1014.2 |
| 20260502205515 | 83 | 41 | 3.0 | 8.0 | 0.00 | 0.03 | 0.00 | 78 | 1014.2 |
| 20260502205014 | 83 | 64 | 2.0 | 9.0 | 0.00 | 0.03 | 0.00 | 78 | 1014.2 |
| 20260502204514 | 82 | 12 | 2.0 | 9.0 | 0.00 | 0.03 | 0.00 | 80 | 1014.3 |
| 20260502204013 | 82 | 40 | 3.0 | 11.0 | 0.00 | 0.03 | 0.00 | 80 | 1014.2 |
| 20260502203516 | 82 | 60 | 2.0 | 12.0 | 0.00 | 0.03 | 0.00 | 80 | 1014.2 |
| 20260502203010 | 82 | 68 | 6.0 | 12.0 | 0.00 | 0.03 | 0.00 | 79 | 1014.2 |
| 20260502202510 | 83 | 56 | 2.0 | 11.0 | 0.00 | 0.03 | 0.00 | 79 | 1014.0 |
| 20260502202007 | 83 | 66 | 5.0 | 11.0 | 0.00 | 0.03 | 0.00 | 78 | 1014.1 |
| 20260502201507 | 83 | 60 | 3.0 | 10.0 | 0.00 | 0.03 | 0.00 | 78 | 1014.2 |
| 20260502201008 | 84 | 49 | 3.0 | 10.0 | 0.00 | 0.03 | 0.00 | 77 | 1014.3 |
| 20260502200509 | 84 | 53 | 2.0 | 5.0 | 0.00 | 0.03 | 0.00 | 75 | 1014.2 |
| 20260502200004 | 84 | 329 | 1.0 | 5.0 | 0.00 | 0.03 | 0.00 | 74 | 1014.2 |
| 20260502195505 | 84 | 32 | 1.0 | 10.0 | 0.00 | 0.03 | 0.00 | 74 | 1014.2 |
| 20260502195002 | 85 | 325 | 3.0 | 10.0 | 0.00 | 0.03 | 0.00 | 73 | 1014.2 |
| 20260502194502 | 85 | 55 | 3.0 | 6.0 | 0.00 | 0.03 | 0.00 | 72 | 1014.2 |
| 20260502194100 | 86 | 330 | 1.0 | 5.0 | 0.00 | 0.03 | 0.00 | 71 | 1014.3 |
| 20260502193559 | 87 | 5 | 1.0 | 5.0 | 0.00 | 0.03 | 0.00 | 69 | 1014.3 |
| 20260502193059 | 87 | 349 | 1.0 | 5.0 | 0.00 | 0.03 | 0.00 | 67 | 1014.4 |
| 20260502192600 | 88 | 18 | 2.0 | 5.0 | 0.00 | 0.03 | 0.00 | 66 | 1014.4 |
| 20260502192057 | 88 | 228 | 1.0 | 6.0 | 0.00 | 0.03 | 0.00 | 66 | 1014.5 |
| 20260502191606 | 89 | 304 | 1.0 | 8.0 | 0.00 | 0.03 | 0.00 | 65 | 1014.6 |
| 20260502191057 | 89 | 243 | 2.0 | 8.0 | 0.00 | 0.03 | 0.00 | 64 | 1014.5 |
| 20260502190556 | 90 | 344 | 1.0 | 5.0 | 0.00 | 0.03 | 0.00 | 64 | 1014.6 |
| 20260502190056 | 91 | 288 | 1.0 | 5.0 | 0.00 | 0.03 | 0.00 | 64 | 1014.7 |
| 20260502185554 | 91 | 292 | 1.0 | 4.0 | 0.00 | 0.03 | 0.00 | 62 | 1014.8 |
| 20260502185054 | 91 | 286 | 1.0 | 6.0 | 0.00 | 0.03 | 0.00 | 61 | 1014.7 |
| 20260502184600 | 91 | 302 | 2.0 | 6.0 | 0.00 | 0.03 | 0.00 | 59 | 1014.9 |
| 20260502184054 | 92 | 311 | 1.0 | 4.0 | 0.00 | 0.03 | 0.00 | 60 | 1014.9 |
| 20260502183553 | 92 | 286 | 1.0 | 4.0 | 0.00 | 0.03 | 0.00 | 62 | 1014.9 |
| 20260502183054 | 92 | 328 | 2.0 | 5.0 | 0.00 | 0.03 | 0.00 | 62 | 1014.9 |
| 20260502182553 | 92 | 300 | 2.0 | 5.0 | 0.00 | 0.03 | 0.00 | 62 | 1014.8 |
| 20260502182051 | 92 | 313 | 2.0 | 4.0 | 0.00 | 0.03 | 0.00 | 61 | 1015.0 |
| 20260502181554 | 91 | 299 | 1.0 | 6.0 | 0.00 | 0.03 | 0.00 | 62 | 1014.9 |
| 20260502181050 | 91 | 288 | 1.0 | 6.0 | 0.00 | 0.03 | 0.00 | 61 | 1015.0 |
| 20260502180551 | 91 | 269 | 2.0 | 6.0 | 0.00 | 0.03 | 0.00 | 60 | 1015.0 |
| 20260502164038 | 91 | 286 | 1.0 | 5.0 | 0.00 | 0.03 | 0.00 | 59 | 1016.0 |
| 20260502163538 | 91 | 256 | 1.0 | 5.0 | 0.00 | 0.03 | 0.00 | 56 | 1016.0 |
| 20260502163047 | 91 | 283 | 1.0 | 7.0 | 0.00 | 0.03 | 0.00 | 53 | 1016.0 |
| 20260502162538 | 91 | 290 | 1.0 | 7.0 | 0.00 | 0.03 | 0.00 | 57 | 1016.0 |
| 20260502162037 | 91 | 291 | 1.0 | 4.0 | 0.00 | 0.03 | 0.00 | 57 | 1016.1 |
| 20260502161534 | 90 | 307 | 1.0 | 4.0 | 0.00 | 0.03 | 0.00 | 59 | 1016.2 |
| 20260502161033 | 90 | 234 | 0.0 | 4.0 | 0.00 | 0.03 | 0.00 | 60 | 1016.3 |
| 20260502160533 | 90 | 290 | 0.0 | 3.0 | 0.00 | 0.03 | 0.00 | 62 | 1016.3 |
| 20260502152028 | 89 | 270 | 1.0 | 4.0 | 0.00 | 0.03 | 0.00 | 62 | 1016.9 |
| 20260502151544 | 88 | 267 | 2.0 | 6.0 | 0.00 | 0.03 | 0.00 | 63 | 1017.1 |
| 20260502151027 | 89 | 197 | 2.0 | 6.0 | 0.00 | 0.03 | 0.00 | 60 | 1017.0 |
| 20260502150527 | 89 | 230 | 1.0 | 5.0 | 0.00 | 0.03 | 0.00 | 60 | 1017.2 |
| 20260502130523 | 83 | 242 | 0.0 | 4.0 | 0.00 | 0.03 | 0.00 | 71 | 1016.7 |
| 20260502123517 | 84 | 230 | 0.0 | 3.0 | 0.00 | 0.03 | 0.00 | 73 | 1016.5 |
| 20260502123027 | 84 | 240 | 1.0 | 3.0 | 0.00 | 0.03 | 0.00 | 73 | 1016.4 |
| 20260502122516 | 83 | 238 | 1.0 | 3.0 | 0.00 | 0.03 | 0.00 | 72 | 1016.3 |
| 20260502122013 | 83 | 226 | 0.0 | 3.0 | 0.00 | 0.03 | 0.00 | 74 | 1016.2 |
| 20260502121512 | 83 | 223 | 0.0 | 2.0 | 0.00 | 0.03 | 0.00 | 75 | 1016.1 |
| 20260502121011 | 82 | 223 | 0.0 | 2.0 | 0.00 | 0.03 | 0.00 | 73 | 1016.0 |
| 20260502120510 | 82 | 217 | 0.0 | 3.0 | 0.00 | 0.03 | 0.00 | 74 | 1016.0 |
| 20260502115507 | 81 | 115 | 1.0 | 3.0 | 0.00 | 0.03 | 0.00 | 74 | 1015.9 |
| 20260502115006 | 80 | 85 | 1.0 | 3.0 | 0.00 | 0.03 | 0.00 | 76 | 1015.9 |
| 20260502114504 | 80 | 69 | 2.0 | 3.0 | 0.00 | 0.03 | 0.00 | 77 | 1015.9 |
| 20260502114003 | 79 | 78 | 0.0 | 2.0 | 0.00 | 0.03 | 0.00 | 81 | 1015.8 |
| 20260502113504 | 79 | 61 | 1.0 | 2.0 | 0.00 | 0.03 | 0.00 | 82 | 1015.6 |
| 20260502113105 | 78 | 69 | 1.0 | 3.0 | 0.00 | 0.03 | 0.00 | 82 | 1015.6 |
| 20260502112559 | 78 | 81 | 1.0 | 3.0 | 0.00 | 0.03 | 0.00 | 82 | 1015.6 |
| 20260502112057 | 77 | 78 | 1.0 | 3.0 | 0.00 | 0.03 | 0.00 | 83 | 1015.6 |
| 20260502111602 | 77 | 72 | 0.0 | 2.0 | 0.00 | 0.03 | 0.00 | 85 | 1015.5 |
| 20260502111056 | 76 | 72 | 0.0 | 3.0 | 0.00 | 0.03 | 0.00 | 87 | 1015.6 |
| 20260502110555 | 75 | 72 | 1.0 | 3.0 | 0.00 | 0.03 | 0.00 | 87 | 1015.4 |
| 20260502110055 | 75 | 72 | 1.0 | 4.0 | 0.00 | 0.03 | 0.00 | 88 | 1015.2 |
| 20260502105555 | 74 | 53 | 2.0 | 4.0 | 0.00 | 0.03 | 0.00 | 88 | 1015.2 |
| 20260502105055 | 74 | 67 | 1.0 | 3.0 | 0.00 | 0.03 | 0.00 | 90 | 1015.2 |
| 20260502104554 | 73 | 86 | 1.0 | 4.0 | 0.00 | 0.03 | 0.00 | 90 | 1015.1 |
| 20260502104053 | 73 | 65 | 2.0 | 4.0 | 0.00 | 0.03 | 0.00 | 91 | 1015.1 |
| 20260502103553 | 73 | 65 | 2.0 | 3.0 | 0.00 | 0.03 | 0.00 | 91 | 1015.0 |
| 20260502103104 | 72 | 57 | 2.0 | 3.0 | 0.00 | 0.03 | 0.00 | 92 | 1015.0 |
| 20260502102552 | 72 | 70 | 2.0 | 3.0 | 0.00 | 0.03 | 0.00 | 92 | 1014.9 |
| 20260502102052 | 72 | 69 | 2.0 | 3.0 | 0.00 | 0.03 | 0.00 | 92 | 1014.9 |
| 20260502101603 | 72 | 80 | 2.0 | 3.0 | 0.00 | 0.03 | 0.00 | 93 | 1014.8 |
| 20260502101051 | 72 | 68 | 1.0 | 3.0 | 0.00 | 0.03 | 0.00 | 93 | 1014.8 |
| 20260502100551 | 72 | 68 | 1.0 | 3.0 | 0.00 | 0.03 | 0.00 | 93 | 1014.8 |
| 20260502100118 | 72 | 67 | 1.0 | 3.0 | 0.00 | 0.03 | 0.00 | 93 | 1014.8 |
| 20260502091047 | 73 | 83 | 2.0 | 4.0 | 0.00 | 0.03 | 0.00 | 93 | 1014.4 |
| 20260502090547 | 73 | 74 | 2.0 | 4.0 | 0.00 | 0.03 | 0.00 | 93 | 1014.2 |
| 20260502071035 | 74 | 81 | 1.0 | 3.0 | 0.00 | 0.03 | 0.00 | 92 | 1013.7 |
| 20260502070535 | 74 | 85 | 1.0 | 3.0 | 0.00 | 0.03 | 0.00 | 92 | 1013.8 |
| 20260502070037 | 74 | 53 | 2.0 | 3.0 | 0.00 | 0.03 | 0.00 | 92 | 1013.8 |
| 20260502065535 | 74 | 81 | 1.0 | 2.0 | 0.00 | 0.03 | 0.00 | 91 | 1013.7 |
| 20260502065032 | 74 | 81 | 1.0 | 3.0 | 0.00 | 0.03 | 0.00 | 91 | 1013.8 |
| 20260502064534 | 75 | 82 | 0.0 | 5.0 | 0.00 | 0.03 | 0.00 | 91 | 1013.9 |
| 20260502064033 | 75 | 78 | 2.0 | 5.0 | 0.00 | 0.03 | 0.00 | 91 | 1013.8 |
| 20260502063531 | 74 | 80 | 2.0 | 4.0 | 0.00 | 0.03 | 0.00 | 91 | 1014.0 |